User: anonymous   Login
Location: Homewood
(41.1836°S, 175.9581°E)
Time: 03:24:10
(UTC+00:00)
Language:

Nadezhda 2 Rocket - Orbit

View from above orbital plane
View from above orbital plane
View from above satellite
View from above satellite

Ground track
Ground track

The orbit data is extracted from the following two-line orbital elements,

1 20509U 90017B   24167.66789213  .00000115  00000-0  10335-3 0  9997
2 20509  82.9535 232.8821 0042104 223.1520 136.6335 13.75740106721340
Epoch (UTC): 15 June 2024 16:01:45
Eccentricity: 0.0042104
inclination: 82.9535°
perigee height: 948 km
apogee height: 1010 km
right ascension of ascending node: 232.8821°
argument of perigee: 223.1520°
revolutions per day: 13.75740106
mean anomaly at epoch: 136.6335°
orbit number at epoch: 72134

The dashed part of the orbit path shows where the satellite is in the earth's shadow,  

DLR